sat.trackr.live / text

‹ back to catalog

TRANSPORTER-15 OBJECT CZ

NORAD 66761 · 2025-276CZ

PAYLOAD ACTIVE UNKNOWN

§ Identity

Operator
Country
TBD
Launch date
2025-11-28
Launch site
AFWTR
Launch vehicle
Mass (kg)
RCS (m²)

External: N2YO · Heavens-Above · Gunter

§ Orbital elements

Epoch: 2026-09-20T10:35:40.300224Z

Period
94.51 min
Inclination
97.4103°
Eccentricity
0.0000841
Mean motion
15.23685495 rev/d
Perigee alt
494.2 km
Apogee alt
495.3 km
Semi-major
6,872.9 km
B*
2.4669e-4
RAAN
336.2784°
Arg perigee
70.5067°
Mean anomaly
289.6260°
Rev number
4,495

§ Raw data

TRANSPORTER-15 OBJECT CZ1 66761U 25276CZ  26263.44143866  .00005849  00000+0  24669-3 0  99982 66761  97.4103 336.2784 0000841  70.5067 289.6260 15.23685495 44956

JSON: /api/v1/satellites/66761 · /tle

For live sub-satellite position, see the globe view (requires WebGL).

§ Visibility from observer

Set your observer location to see the next 7 days of passes ≥ 10°. The values pass through the URL so the page stays shareable.

No JS? Fill the form by hand. The geolocation button needs JavaScript.